Regional Weather Roundup
Issued by NWS

Home | Current Version | Previous Version | Graphics & Text | Print | Product List | Glossary On
Versions: 1 2 3 4 5 6 7 8 9 10 11 12 13 14 15 16 17 18 19 20 21 22 23 24 25 26 27 28 29 30 31 32 33 34 35 36 37 38 39 40 41 42 43 44 45 46 47 48 49 50
000
ASUS43 KIND 230309
RWRIN

WEATHER ROUNDUP FOR INDIANA
NATIONAL WEATHER SERVICE INDIANAPOLIS IN
1000 PM EST WED NOV 22 2017

NOTE: "FAIR" INDICATES FEW OR NO CLOUDS BELOW 12,000 FEET WITH NO
SIGNIFICANT WEATHER AND/OR OBSTRUCTIONS TO VISIBILITY.

* - STATION DOES NOT REPORT WEATHER SUCH AS PRECIPITATION OR FOG.

+ - STATION NOT QUALITY CONTROLLED BY THE NATIONAL WEATHER SERVICE.
    USE DATA WITH CAUTION...ESPECIALLY DEWPOINT AND RELATIVE
    HUMIDITY OBSERVATIONS.

INZ001>003-010>013-019-020-230400-
NORTHWEST INDIANA

CITY           SKY/WX    TMP DP  RH WIND       PRES   REMARKS
GARY /AIRPORT/ MOCLDY    32  18  55 CALM      30.24F
KNOX *+        CLOUDY    27  21  80 CALM      30.22F
LA PORTE +     CLOUDY    29  20  70 SW3       30.21F
MICHIGAN CITY+ MOCLDY    30  21  69 SW5       30.22F WCI  25
MONTICELLO +   PTCLDY    27  24  89 CALM      30.24S
RENSSELAER +   CLOUDY    28  21  74 CALM      30.23F
VALPARAISO     CLOUDY    31  19  61 S5        30.21F WCI  26

$$

LMZ046-743>745-230400-
SOUTHERN LAKE MICHIGAN

STATION/POSITION TIME  TEMP    WIND        PRES    WAVE
                       AIR SEA DIR/SP/G            HT
                 (UTC) (F)     (DEG/KT/KT) (MB)    (FT)
BURNS HARBOR     0304   32     230/  7/  9 1024.0
MICHIGAN CITY    0240   31     190/  9/ 11   N/A

$$

INZ004-005-014>016-021>024-230400-
NORTH CENTRAL INDIANA

CITY           SKY/WX    TMP DP  RH WIND       PRES   REMARKS
GOSHEN         PTCLDY    28  23  81 CALM      30.22F
LOGANSPORT +   PTCLDY    30  27  86 CALM      30.25S
PERU/GRISSOM   PTCLDY    28  24  84 SW3       30.23S
ROCHESTER +    MOCLDY    32  23  69 SW3       30.24S
SOUTH BEND     PTCLDY    28  22  78 S5        30.22F WCI  23
WARSAW +       PTCLDY    28  23  80 W3        30.23S

$$

INZ006>009-017-018-025>027-230400-
NORTHEAST INDIANA

CITY           SKY/WX    TMP DP  RH WIND       PRES   REMARKS
AUBURN +       PTCLDY    28  21  74 CALM      30.23F
FORT WAYNE     CLOUDY    30  25  81 CALM      30.24S
HUNTINGTON +   PTCLDY    28  24  83 CALM      30.24S
KENDALLVILLE + CLOUDY    28  23  80 S5        30.21F WCI  23

$$

INZ028-029-035-036-043>045-051>053-230400-
WEST CENTRAL INDIANA

CITY           SKY/WX    TMP DP  RH WIND       PRES   REMARKS
CRAWFORDSVL +  PTCLDY    24  24 100 MISG        N/A
GREENCASTLE +  CLOUDY    28  23  80 CALM      30.25S
LAFAYETTE      PTCLDY    27  24  89 CALM      30.25R
TERRE HAUTE    CLOUDY    26  21  81 CALM      30.27R

$$

INZ030>032-037>040-046>048-054>057-064-065-230400-
CENTRAL INDIANA

CITY           SKY/WX    TMP DP  RH WIND       PRES   REMARKS
CP ATTERBURY + CLOUDY    25  23  93 CALM      30.26S
COLUMBUS       CLEAR     27  21  80 CALM      30.25F
FISHERS *+     PTCLDY    25  25 100 CALM      30.25S
FRANKFORT +    CLOUDY    29  26  89 CALM      30.26R
GREENWOOD *+   CLOUDY    28  25  88 CALM      30.25S
INDIANAPOLIS   CLOUDY    31  23  72 E3        30.25S
-EAGLE CREEK   PTCLDY    29  22  75 CALM      30.24S
KOKOMO +       MOCLDY    28  25  88 CALM      30.25S
MARION +       PTCLDY    28  25  89 CALM      30.25S FOG
MT COMFORT *+  PTCLDY    25  25 100 CALM      30.25R
SHELBYVILLE    CLOUDY    25  20  81 CALM      30.24F
ZIONSVILLE +   CLOUDY    27  25  92 CALM      30.25S

$$

INZ033-034-041-042-049-050-058-059-230400-
EAST CENTRAL INDIANA

CITY           SKY/WX    TMP DP  RH WIND       PRES   REMARKS
MUNCIE         CLOUDY    28  22  78 CALM      30.25R
RICHMOND +     CLOUDY    25  23  93 CALM      30.24S

$$

INZ060-061-067>069-081>083-085>088-230400-
SOUTHWEST INDIANA

CITY           SKY/WX    TMP DP  RH WIND       PRES   REMARKS
EVANSVILLE     CLOUDY    27  23  85 CALM      30.28F
HUNTINGBURG +  CLOUDY    28  24  85 CALM      30.26F
WASHINGTON +   CLOUDY    28  23  82 CALM      30.26F

$$

INZ062-063-066-070>080-084-089>092-230400-
SOUTH CENTRAL AND SOUTHEAST INDIANA

CITY           SKY/WX    TMP DP  RH WIND       PRES   REMARKS
BEDFORD +      CLOUDY    30  21  69 CALM      30.24F
BLOOMINGTON    CLOUDY    26  20  77 CALM      30.24S
MADISON *+     CLEAR     28  23  80 CALM      30.26F
NORTH VERNON + CLOUDY    25  21  86 CALM      30.25S
SEYMOUR +      CLOUDY    27  21  80 CALM      30.26S

$$





USA.gov is the U.S. government's official web portal to all federal, state and local government web resources and services.